Flag for Canada Weather past 2 weeks in Kings County, Nova Scotia, Canada

Now
60 °F

Cool.


Feels Like: 60 °F
Forecast: 59 / 78 °F
Wind: 1 mph from Northwest

Location: McNabs Island - AUT

Current Time: Aug 3, 2015 at 2:02:23 AM

Latest Report: Aug 3, 2015 at 1:00 AM


Visibility: N/A

Pressure: 29.89 "Hg

Humidity: 99%

Dew point: 60 °F

Location of Kings CountyLocation

Historic Weather in Kings County — Graph

°F

Kings County temperature yesterday

Maximum temperature yesterday: 79 °F (at 11:00 AM)
Minimum temperature yesterday: 62 °F (at 7:00 AM)
Average temperature yesterday: 70 °F

Past Weeks' High & Low Weather Summary

 TemperatureHumidityPressure
High80 °F (Jul 29, 5:00 PM)100% (Jul 19, 8:00 PM)30.14 "Hg (Jul 19, 8:00 PM)
Low57 °F (Jul 25, 4:00 AM)43% (Jul 29, 5:00 PM)29.50 "Hg (Jul 22, 5:00 PM)
Average65 °F87%29.83 "Hg
* Reported Midnight between Jul 18 and Jul 19 — Midnight between Aug 2 and Aug 3, Kings County, Weather by CustomWeather, © 2015

Note: Actual official high and low records may vary slightly from our data, if they occured in-between our weather recording intervals... More about our weather records

Advertising

Kings County weather history for previous 24 hours

 ConditionsComfort  
Time TempWeatherWind HumidityBarometerVisibility
12:00 AM
Mon, Aug 3
64 °FMild.2 mph89%29.88 "HgN/A
11:00 PM
Sun, Aug 2
62 °FCool.2 mph93%29.87 "HgN/A
10:00 PM64 °FMild.2 mph85%29.86 "HgN/A
9:00 PM66 °FMild.5 mph81%29.85 "HgN/A
8:00 PM69 °FMild.20 mph73%29.83 "HgN/A
7:00 PM72 °FMild.22 mph65%29.80 "HgN/A
6:00 PM74 °FMild.20 mph62%29.80 "HgN/A
5:00 PM76 °FMild.20 mph59%29.80 "HgN/A
4:00 PM78 °FWarm.15 mph55%29.79 "HgN/A
3:00 PM78 °FWarm.16 mph54%29.79 "HgN/A
2:00 PM79 °FWarm.18 mph51%29.79 "HgN/A
1:00 PM77 °FMild.16 mph56%29.78 "HgN/A
12:00 PM78 °FWarm.15 mph49%29.78 "HgN/A
11:00 AM79 °FWarm.6 mph53%29.78 "HgN/A
10:00 AM74 °FMild.2 mph67%29.78 "HgN/A
9:00 AM71 °FMild.1 mph71%29.78 "HgN/A
8:00 AM66 °FMild.3 mph83%29.76 "HgN/A
7:00 AM62 °FCool.2 mph97%29.74 "HgN/A
6:00 AM62 °FMild.6 mph95%29.73 "HgN/A
5:00 AM63 °FMild.7 mph92%29.72 "HgN/A
4:00 AM64 °FMild.6 mph89%29.72 "HgN/A
3:00 AM64 °FMild.3 mph90%29.72 "HgN/A
2:00 AM64 °FMild.1 mph87%29.72 "HgN/A
Weather by CustomWeather, © 2015

See weather overviewHow to use our weather pages